Regional Weather Roundup
Issued by NWS Upton, NY

Current Version | Previous Version | Graphics & Text | Print | Product List | Glossary Off
Versions: 1 2 3 4 5 6 7 8 9 10 11 12 13 14 15 16 17 18 19 20 21 22 23 24 25 26 27 28 29 30 31 32 33 34 35 36 37 38 39 40 41 42 43 44 45 46 47 48 49 50

000
ASUS41 KOKX 010804
RWROKX

REGIONAL WEATHER ROUNDUP
NATIONAL WEATHER SERVICE NEW YORK NY
400 AM EDT SAT AUG 01 2015

NOTE: "FAIR" INDICATES FEW OR NO CLOUDS BELOW 12,000 FEET WITH NO
SIGNIFICANT WEATHER AND/OR OBSTRUCTIONS TO VISIBILITY.

NYZ071-072-176-178-NJZ106-104-010900-
NEW YORK CITY METRO AREA


CITY           SKY/WX    TMP DP  RH WIND       PRES   REMARKS
CENTRAL PARK   MOCLDY    78  57  48 CALM      29.82F
LAGUARDIA APRT PTCLDY    80  58  46 SW10      29.78F
KENNEDY INTL   PTCLDY    76  63  64 SW10      29.81S
NEWARK/LIBERTY PTCLDY    75  60  59 SW10      29.79F
BRNX BOT. GARD   N/A     79  57  47 W10       29.81F
TETERBORO      MOCLDY    74  59  59 S3        29.78F
$$

NYZ177-179-078>081-010900-
LONG ISLAND NEW YORK

CITY           SKY/WX    TMP DP  RH WIND       PRES   REMARKS
FARMINGDALE    CLEAR     73  64  73 SW5       29.80S
ISLIP          CLEAR     71  65  81 SW7       29.78S
SHIRLEY        CLEAR     68  66  93 CALM      29.80F
WESTHAMPTON    PTCLDY    61  59  93 CALM      29.81F
MONTAUK POINT    N/A     76  63  64 SW5       29.80F
$$

NYZ052-065-067-010900-
HUDSON VALLEY

CITY           SKY/WX    TMP DP  RH WIND       PRES   REMARKS
WHITE PLAINS   PTCLDY    73  59  61 W3        29.79F
NEWBURGH       CLEAR     72  59  64 CALM      29.80
MONTGOMERY     CLEAR     65  61  87 SW3       29.79F
POUGHKEEPSIE   CLEAR     64  60  87 CALM      29.77F
ALBANY         MOCLDY    65  58  78 CALM      29.75F
$$

NJZ001-105-106-008-010-013-015-019>022-104-010900-
NEW JERSEY

CITY           SKY/WX    TMP DP  RH WIND       PRES   REMARKS
NEWARK/LIBERTY PTCLDY    75  60  59 SW10      29.79F
TETERBORO      MOCLDY    74  59  59 S3        29.78F
CALDWELL       CLEAR     71  59  65 VRB3      29.80F
MORRISTOWN     PTCLDY    64  59  82 CALM      29.81S
SOMERVILLE     CLEAR     63  60  90 CALM      29.80S
SUSSEX         CLEAR     62  59  90 CALM      29.81F
ANDOVER          N/A     63  62  97 CALM      29.82F
TRENTON        PTCLDY    71  61  70 SW3       29.82S
MILLVILLE      CLEAR     67  64  90 SW3       29.85F
ATLANTIC CITY  CLEAR     73  66  78 SW6       29.84F
WRIGHTSTOWN    CLEAR     69  64  84 CALM      29.80F
TOMS RIVER       N/A     66  61  82 SW5       29.83F
BELMAR         CLEAR     72  57  60 SW6       29.82F
$$

PAZ047>061-062-071-010900-
EASTERN PENNSYLVANIA

CITY           SKY/WX    TMP DP  RH WIND       PRES   REMARKS
PHILADELPHIA   MOCLDY    75  66  73 SW7       29.83F
ALLENTOWN      CLEAR     65  61  87 CALM      29.82F
SCRANTON       CLEAR     66  59  78 S3        29.82F
$$

CTZ002-004>006-009-010-012-RIZ004-006-007-MAZ004-011-015-010900-
SOUTHERN NEW ENGLAND
 IN CT

CITY           SKY/WX    TMP DP  RH WIND       PRES   REMARKS
BRADLEY INTL   PTCLDY    66  60  81 W3        29.76F
HARTFORD       PTCLDY    70  59  68 S3        29.76F
DANBURY        MOCLDY    67  58  72 CALM      29.80F
WTRBRY/OXFORD  PTCLDY    70  55  60 CALM      29.81F
BRIDGEPORT     CLEAR     72  65  78 W3        29.78F
MERIDEN        PTCLDY    64  60  87 CALM      29.78F
NEW HAVEN      CLEAR     67  64  90 CALM      29.78F
CHESTER        FAIR      70  64  83 SW5       29.80F
GROTON         CLEAR     64  63  96 CALM      29.78F
WILLIMANTIC    PTCLDY    62  58  86 CALM      29.78F

 IN RI

CITY           SKY/WX    TMP DP  RH WIND       PRES   REMARKS
PROVIDENCE     CLEAR     66  60  81 CALM      29.78F
BLOCK ISLAND     N/A     70  64  83 W8        29.80F
WESTERLY       PTCLDY    63  62  97 CALM      29.80S

 IN MA

CITY           SKY/WX    TMP DP  RH WIND       PRES   REMARKS
BOSTON         CLEAR     71  55  56 SW7       29.76F
WORCESTER      MOCLDY    67  55  65 SW7       29.79F
WESTFIELD      MOCLDY    63  60  90 S3        29.76F
PROVINCETOWN   CLEAR     70  61  73 SW7       29.78F
NANTUCKET        N/A     68  65  90 W7        29.78F
$$

ANZ330-335-338-340-345-350-353-355-010900-
COASTAL MARINE OBSERVATIONS


STATION/POSITION TIME  SKY/WX   TEMP    WIND        PRES    VSBY  WAVE
                                AIR SEA DIR/SP/G                  HT/PER
                 (UTC)          (F)     (DEG/KT/KT) (MB)    (MI)  (FT/S)
NY HARB ENTRANCE 0650            76 76  240/ 12/ 14 1009.1          3/ 7
4S FIRE IS       NOT AVBL
20S FIRE ISLAND  0650            77 75  240/  8/  8 1009.3          3/ 7
GREAT SOUTH BAY  0730            78 81  260/ 10/ 12   N/A
23SW MTP         0750            75 73  250/  8/ 10 1008.7          4/ 8
HUDSON CANYON    NOT AVBL
KINGS POINT      0700            80 70  240/  6/  8 1008.4
EXECUTION ROCKS  0700            74     220/  2/  4   N/A
CENTRAL LI SOUND NOT AVBL
EASTERN LI SOUND 0700            69 68   CALM  /  2   N/A
ROBBINS REEF     0700            78     250/ 12/ 14 1008.0
$$


>>>>>>>>>>>>>>>>>>>>>>>>>>>> KEY <<<<<<<<<<<<<<<<<<<<<<<<<<<
>                                                          <
>     SKY/WX - SKY CONDITION/PRESENT WEATHER               <
>     TMP    - TEMPERATURE IN FAHRENHEIT                   <
>     DP     - DEWPOINT IN FAHRENHEIT                      <
>     RH     - RELATIVE HUMIDITY IN PERCENT                <
>     WIND   - DIRECTION AND SPEED IN MPH                  <
>     PRES   - MEAN SEA LEVEL PRESSURE IN INCHES OF HG     <
>     WCI    - WIND CHILL INDEX                            <
>     VSB    - VISIBILITY IN MILES                         <
>     HX     - HEAT INDEX                                  <
>     TC     - TEMPERATURE IN CELSIUS                      <
>     VRB    - VARIABLE WIND DIRECTION                     <
>                                                          <
>>>>>>>>>>>>>>>>>>>>>>>>>>>> KEY <<<<<<<<<<<<<<<<<<<<<<<<<<<





USA.gov is the U.S. government's official web portal to all federal, state and local government web resources and services.